SCP
0 0 0 0 0 0 0 0 0 0 0 0 0 0 0 0 0 0 0 0 0 0 0 0 0 0 0 0 0 0 0 0 0 0 0 0 0 0 0 0 0 0 0
0 0 0 0 0 0 0 0 0 0 0 0 0 0 0 0 0 0 0 0 0 0 0 0 0 0 0 0 0 0 0 0 0 0 0 0 0 0 0 0 0 0 0
0 0 0 0 0 0 0 0 0 0 0 0 0 0 0 0 0 0 0 0 0 0 0 0 0 0 0 0 0 0 0 0 0 0 0 0 0 0 0 0 0 0 0
0 0 0 0 0 0 0 0 0 0 0 0 0 0 0 0 0 0 0 0 0 0 0 0 0 0 0 0 0 0 0 0 0 0 0 0 0 0 0 0 0 0 0
0 0 0 0 0 0 0 0 0 0 0 0 0 0 0 0 0 0 0 0 0 0 0 0 0 0 0 0 0 0 0 0 0 0 0 0 0 0 0 0 0 0 0
0 0 0 0 0 0 0 0 0 0 0 0 0 0 0 0 0 0 0 0 0 0 0 0 0 0 0 0 0 0 0 0 0 0 0 0 0 0 0 0 0 0 0
0 0 0 0 0 0 0 0 0 0 0 0 0 0 0 0 0 0 0 0 0 0 0 0 0 0 0 0 0 0 0 0 0 0 0 0 0 0 0 0 0 0 0
0 0 0 0 0 0 0 0 0 0 0 0 0 0 0 0 0 0 0 0 0 0 0 0 0 0 0 0 0 0 0 0 0 0 0 0 0 0 0 0 0 0 0
0 0 0 0 0 0 0 0 0 0 0 0 0 0 0 0 0 0 0 0 0 0 0 0 0 0 0 0 0 0 0 0 0 0 0 0 0 0 0 0 0 0 0
0 0 0 0 0 0 0 0 0 0 0 0 0 0 0 0 0 0 0 0 0 0 0 0 0 0 0 0 0 0 0 0 0 0 0 0 0 0 0 0 0 0 0
0 0 0 0 0 0 0 0 0 0 0 0 0 0 0 0 0 0 0 0 0 0 0 0 0 0 0 0 0 0 0 0 0 0 0 0 0 0 0 0 0 0 0
0 0 0 0 0 0 0 0 0 0 0 0 0 0 0 0 0 0 0 0 0 0 0 0 0 0 0 0 0 0 0 0 0 0 0 0 0 0 0 0 0 0 0
0 0 0 0 0 -0 0 -0 -0 -0 0 0 0 0 0 0 0 0 0 0 0 0 0 0 0 0 0 0 0 0 0 0 0 0 0 0 0 0 0 0 0 0 0
0 0 -0 0 0 0 0 -0 -0 -0 -0 0 0 0 0 0 0 0 0 0 0 0 0 0 0 0 0 0 0 0 0 0 0 0 0 0 0 0 0 0 0 0 0
0 -0 -0 -0 -0 0 -0 -0 -0 -0 -0 -0 -0 0 0 0 0 0 0 0 0 0 0 0 0 0 0 0 0 0 0 0 0 0 0 0 0 0 0 0 0 0 0
0 0 -0 0 0 0 -0 -0 -0 -0 -0 -0 -0 0 0 0 0 0 0 0 0 0 0 0 0 0 0 0 0 0 0 0 0 0 0 0 0 0 0 0 0 0 0
0 0 0 0 0 0 0 0 0 0 0 0 0 0 0 0 0 0 0 0 0 0 0 0 0 0 0 0 0 0 0 0 0 0 0 0 0 0 0 0 0 0 0
-0 -0 -0 -0 0 0 0 0 0 0 0 0 0 0 0 0 0 0 0 0 0 0 0 0 0 0 0 0 0 0 0 0 0 0 0 0 0 0 0 0 0 0 0
0 0 0 0 0 0 0 0 0 0 0 0 0 0 0 0 0 0 0 0 0 0 0 0 0 0 0 0 0 0 0 0 0 0 0 0 0 0 0 0 0 0 0
0 0 0 0 0 0 0 0 0 0 0 0 0 0 0 0 0 0 0 0 0 0 0 0 0 0 0 0 0 0 0 0 0 0 0 0 0 0 0 0 0 0 0
0 0 0 0 0 0 0 0 0 0 0 0 0 0 0 0 0 0 0 0 0 0 0 0 0 0 0 0 0 0 0 0 0 0 0 0 0 0 0 0 0 0 0
0 0 0 0 0 0 0 0 0 0 0 0 0 0 0 0 0 0 0 0 0 0 0 0 0 0 0 0 0 0 0 0 0 0 0 0 0 0 0 0 0 0 0
0 0 0 0 0 0 0 0 0 0 0 0 0 0 0 0 0 0 0 0 0 0 0 0 0 0 0 0 0 0 0 0 0 0 0 0 0 0 0 0 0 0 0
0 0 0 0 0 0 0 0 0 0 0 0 0 0 0 0 0 0 0 0 0 0 0 0 0 0 0 0 0 0 0 0 0 0 0 0 0 0 0 0 0 0 0
0 0 0 0 0 0 0 0 0 0 0 0 0 0 0 0 0 0 0 0 0 0 0 0 0 0 0 0 0 0 0 0 0 0 0 0 0 0 0 0 0 0 0
0 0 0 0 0 0 0 0 0 0 0 0 0 0 0 0 0 0 0 0 0 0 0 0 0 0 0 0 0 0 0 0 0 0 0 0 0 0 0 0 0 0 0
Wind_Speed_500mb
20 24 29 34 37 40 39 49 43 38 49 40 34 38 46 45 45 37 35 44 39 30 21 19 29 33 40 47 48 49 54 57 58 56 55 46 40 41 39 40 38 40 42
18 19 29 28 33 42 44 38 46 56 51 43 45 41 39 36 33 29 31 29 29 23 27 33 34 36 36 39 40 40 42 45 49 52 41 35 29 26 22 21 24 28 28
17 22 25 24 26 33 38 43 47 54 54 53 39 35 36 28 28 26 21 21 21 22 19 20 14 12 9 7 7 8 10 16 26 30 30 26 22 17 18 20 20 19 18
17 17 17 19 28 34 41 44 35 54 52 44 43 36 26 25 26 23 25 29 29 32 31 30 29 24 20 17 11 10 10 10 12 14 18 24 24 23 19 18 20 19 18
12 8 5 13 22 34 41 44 52 47 48 48 49 45 43 46 46 47 47 44 40 37 32 28 25 24 25 24 20 22 20 16 19 25 29 28 27 29 25 24 23 22 20
8 5 8 19 26 39 48 50 49 52 55 59 63 70 67 63 53 45 41 40 36 35 35 35 34 29 29 25 28 27 28 27 23 24 28 27 26 21 19 18 19 20 16
27 28 24 31 41 54 63 63 75 76 75 75 74 64 60 54 44 40 35 36 36 36 35 33 34 34 30 23 23 22 20 21 20 18 19 21 21 20 18 17 19 16 17
48 45 54 56 62 73 80 79 82 72 68 69 65 60 54 49 39 37 33 35 37 37 35 32 29 30 29 25 19 18 20 16 16 13 11 10 11 12 13 14 15 14 13
67 63 59 64 70 72 76 70 68 63 60 58 57 54 53 52 40 36 29 31 31 30 28 26 22 20 20 20 13 11 13 10 9 8 6 6 8 9 10 12 15 16 16
60 58 56 62 65 64 65 63 61 53 54 52 52 47 45 46 38 33 27 25 24 24 22 18 15 11 11 10 6 6 5 3 4 5 7 9 11 13 16 16 18 20 21
45 46 46 49 51 53 53 53 49 48 46 46 45 42 38 33 29 22 21 18 17 14 13 9 7 3 2 0 2 2 3 6 9 11 13 16 18 19 19 20 23 24 26
34 36 38 39 40 41 42 45 41 37 36 36 34 31 28 25 18 13 11 8 8 7 5 4 4 8 10 9 9 8 10 12 13 14 16 19 21 23 24 26 28 28 29
22 25 28 30 32 32 32 33 31 27 26 24 20 18 17 13 9 5 3 1 3 3 5 7 7 12 12 10 11 12 12 13 13 14 16 18 20 22 23 23 25 26 28
18 20 22 23 24 22 23 21 17 17 16 14 12 9 5 2 2 1 3 3 2 2 5 10 12 11 12 14 13 13 12 13 15 18 20 22 23 24 24 24 25 28 28
19 18 17 16 16 16 13 13 10 10 8 6 4 2 2 5 7 9 10 9 12 10 10 14 18 19 18 18 18 17 18 19 20 21 20 21 22 22 23 22 22 25 26
21 20 19 17 15 14 14 14 8 7 8 6 4 2 8 11 11 13 15 11 15 16 16 20 22 23 23 22 21 21 21 20 20 20 19 19 19 20 22 21 22 24 24
22 22 21 19 15 11 8 6 6 9 12 14 16 18 15 17 17 15 15 12 11 12 18 22 23 23 22 20 19 18 17 16 16 17 17 18 18 19 18 19 21 22 23
17 17 17 16 14 12 10 9 9 10 14 15 15 17 20 18 17 15 12 10 8 8 11 14 14 14 13 13 13 13 14 15 16 17 19 20 21 22 23 23 23 23 24
15 16 15 14 13 11 10 10 11 12 14 14 15 16 17 17 15 13 11 7 6 5 6 7 8 9 10 11 13 15 16 18 19 20 21 22 23 24 25 26 26 27 28
9 9 10 10 10 10 10 11 12 13 14 14 14 15 14 14 13 12 10 9 9 9 10 11 13 15 17 18 20 21 22 24 25 26 27 28 29 29 30 30 31 31 33
8 11 14 14 15 16 16 16 17 17 17 17 16 13 12 10 10 11 12 14 15 16 16 17 18 20 21 23 24 25 26 27 29 31 32 33 34 35 37 37 37 38 39
11 14 16 17 18 19 19 20 19 19 19 18 17 16 14 13 14 16 17 17 18 19 20 21 22 23 23 24 26 28 29 30 32 35 37 37 38 39 41 42 42 44 45
15 17 18 18 20 21 21 20 20 19 18 17 17 16 16 17 18 19 20 21 22 22 22 22 23 25 28 30 32 34 35 36 38 40 43 44 46 46 48 50 50 51 52
20 20 20 20 22 22 22 21 20 19 18 17 18 18 19 20 20 22 23 24 24 24 26 27 29 31 33 35 38 41 43 45 48 49 51 54 55 55 57 59 60 61 62
24 22 21 22 23 23 22 21 20 20 19 19 20 20 22 23 25 25 25 26 27 28 30 33 36 39 43 46 48 48 49 50 53 55 59 63 67 67 69 70 71 71 71
26 24 23 23 23 23 22 21 21 21 21 22 23 24 25 26 27 27 29 31 33 36 39 42 46 50 51 52 53 55 58 61 65 67 69 72 75 75 74 74 72 71 71
Wind_Direction_500mb
255 237 241 240 232 239 242 233 227 246 248 244 234 217 215 213 216 216 220 222 227 215 216 248 248 261 259 257 255 257 251 256 251 245 246 245 243 247 247 244 237 234 231
281 259 256 256 245 239 240 228 208 237 242 233 208 198 205 197 174 179 186 180 191 203 211 235 253 247 253 252 251 254 250 247 245 240 236 237 239 236 231 226 215 218 228
276 256 252 244 236 231 227 220 202 215 226 227 197 189 166 162 172 182 193 205 201 205 205 206 190 146 151 145 178 195 227 240 236 234 224 211 199 192 194 196 198 209 224
291 268 253 229 224 215 204 197 194 209 202 173 162 156 154 152 151 157 147 138 138 130 129 123 119 124 126 132 142 152 166 184 179 165 170 170 170 165 177 185 186 189 193
327 296 236 203 202 191 186 176 177 178 163 154 147 140 139 133 124 124 122 121 126 129 127 125 120 112 108 112 119 113 111 130 142 148 150 155 157 161 171 172 175 165 165
55 77 129 151 165 155 153 151 150 140 140 137 132 129 126 121 121 122 123 125 123 121 120 115 108 105 100 104 104 104 106 105 110 121 129 136 139 146 153 159 165 163 169
98 103 114 126 135 134 128 131 126 126 125 121 118 116 113 110 113 113 115 119 120 116 112 111 115 110 103 96 94 97 101 107 112 116 129 138 144 155 161 173 186 205 218
86 98 109 116 118 116 117 117 116 116 113 110 111 109 109 103 107 111 120 121 121 118 115 112 110 109 105 98 90 96 98 103 105 112 118 135 152 167 181 193 196 208 216
72 79 85 93 97 103 104 102 101 107 107 106 109 115 115 110 108 106 110 110 109 110 105 101 97 96 96 97 94 88 95 101 107 109 115 141 164 181 204 216 217 221 224
67 65 70 79 83 87 90 97 100 103 104 107 108 108 106 103 104 104 103 101 105 106 106 106 108 107 106 104 119 118 105 146 170 185 203 230 230 228 233 236 243 243 246
73 77 82 85 89 94 95 95 98 101 104 102 103 102 102 102 103 101 103 104 104 108 112 132 143 143 117 164 302 316 268 265 266 263 261 260 261 259 258 256 255 255 254
87 90 89 90 91 91 90 94 96 100 102 98 93 97 95 95 100 117 116 124 130 118 144 194 237 242 255 269 279 272 268 269 269 271 271 272 271 266 262 262 261 261 259
85 92 94 95 96 99 100 97 97 92 84 87 92 90 82 80 67 57 44 257 264 227 241 237 260 281 286 294 293 283 270 264 266 275 277 277 277 278 277 276 273 268 263
75 84 88 93 95 95 92 93 92 94 93 93 86 88 93 86 30 347 276 296 321 289 260 284 292 294 302 312 315 307 293 287 285 284 285 285 284 282 282 280 281 279 277
68 71 73 74 74 73 77 79 69 69 58 48 69 50 307 289 286 294 293 265 269 280 272 280 288 296 304 303 303 297 289 289 291 291 288 283 281 281 281 282 283 281 280
59 66 70 70 73 85 84 94 111 87 82 95 104 334 285 290 296 291 297 295 280 262 253 260 270 279 284 287 285 285 285 288 291 291 291 292 291 292 294 292 287 281 280
40 42 44 45 45 51 52 46 26 1 358 350 348 336 339 333 333 328 323 319 298 255 252 255 257 261 267 272 277 283 290 292 292 293 294 296 295 293 293 293 292 292 291
43 42 41 36 32 24 7 343 323 315 318 323 324 322 324 328 328 331 331 320 304 269 247 244 250 262 275 285 296 305 310 311 308 305 303 301 299 299 297 294 293 293 294
28 29 26 21 16 6 351 331 319 313 311 312 314 314 316 323 330 336 340 325 295 278 264 264 271 281 291 297 299 300 300 300 301 301 301 300 301 299 297 296 295 293 292
10 6 5 5 358 348 337 326 314 305 300 300 304 308 311 317 323 321 317 318 322 321 319 316 312 310 310 311 312 314 314 314 312 310 309 308 308 305 302 299 297 295 293
350 356 356 353 345 335 325 314 306 301 298 299 302 308 312 309 308 310 316 318 316 312 310 309 310 310 311 311 311 311 310 310 309 307 308 307 306 304 302 301 299 298 296
330 333 328 326 324 319 312 304 296 289 286 287 292 297 299 299 303 304 302 301 303 303 303 302 302 303 304 304 305 306 306 305 304 303 303 302 301 300 299 298 298 297 296
299 301 300 303 307 305 300 293 285 280 277 278 279 282 286 290 293 297 299 300 299 299 298 298 299 302 304 305 305 303 303 302 300 300 300 298 297 297 296 294 293 291 290
281 283 288 296 300 299 294 288 283 278 274 275 277 281 286 289 292 292 291 292 293 295 297 299 301 301 300 299 299 299 299 298 296 296 295 294 293 293 291 290 289 289 288
274 279 285 291 292 290 285 278 276 276 277 279 282 284 287 289 289 289 290 292 295 296 298 299 299 299 298 297 296 296 295 293 291 291 290 289 288 288 287 286 286 287 286
274 276 281 286 286 283 278 277 276 277 279 281 283 285 287 287 288 290 292 294 295 296 296 296 296 297 297 297 297 295 293 293 293 292 290 289 288 288 288 288 287 286 285
Wind_Speed_850mb
20 24 29 34 37 40 39 49 43 38 49 40 34 38 46 45 45 37 35 44 39 30 21 19 29 33 40 47 48 49 54 57 58 56 55 46 40 41 39 40 38 40 42
18 19 29 28 33 42 44 38 46 56 51 43 45 41 39 36 33 29 31 29 29 23 27 33 34 36 36 39 40 40 42 45 49 52 41 35 29 26 22 21 24 28 28
17 22 25 24 26 33 38 43 47 54 54 53 39 35 36 28 28 26 21 21 21 22 19 20 14 12 9 7 7 8 10 16 26 30 30 26 22 17 18 20 20 19 18
17 17 17 19 28 34 41 44 35 54 52 44 43 36 26 25 26 23 25 29 29 32 31 30 29 24 20 17 11 10 10 10 12 14 18 24 24 23 19 18 20 19 18
12 8 5 13 22 34 41 44 52 47 48 48 49 45 43 46 46 47 47 44 40 37 32 28 25 24 25 24 20 22 20 16 19 25 29 28 27 29 25 24 23 22 20
8 5 8 19 26 39 48 50 49 52 55 59 63 70 67 63 53 45 41 40 36 35 35 35 34 29 29 25 28 27 28 27 23 24 28 27 26 21 19 18 19 20 16
27 28 24 31 41 54 63 63 75 76 75 75 74 64 60 54 44 40 35 36 36 36 35 33 34 34 30 23 23 22 20 21 20 18 19 21 21 20 18 17 19 16 17
48 45 54 56 62 73 80 79 82 72 68 69 65 60 54 49 39 37 33 35 37 37 35 32 29 30 29 25 19 18 20 16 16 13 11 10 11 12 13 14 15 14 13
67 63 59 64 70 72 76 70 68 63 60 58 57 54 53 52 40 36 29 31 31 30 28 26 22 20 20 20 13 11 13 10 9 8 6 6 8 9 10 12 15 16 16
60 58 56 62 65 64 65 63 61 53 54 52 52 47 45 46 38 33 27 25 24 24 22 18 15 11 11 10 6 6 5 3 4 5 7 9 11 13 16 16 18 20 21
45 46 46 49 51 53 53 53 49 48 46 46 45 42 38 33 29 22 21 18 17 14 13 9 7 3 2 0 2 2 3 6 9 11 13 16 18 19 19 20 23 24 26
34 36 38 39 40 41 42 45 41 37 36 36 34 31 28 25 18 13 11 8 8 7 5 4 4 8 10 9 9 8 10 12 13 14 16 19 21 23 24 26 28 28 29
22 25 28 30 32 32 32 33 31 27 26 24 20 18 17 13 9 5 3 1 3 3 5 7 7 12 12 10 11 12 12 13 13 14 16 18 20 22 23 23 25 26 28
18 20 22 23 24 22 23 21 17 17 16 14 12 9 5 2 2 1 3 3 2 2 5 10 12 11 12 14 13 13 12 13 15 18 20 22 23 24 24 24 25 28 28
19 18 17 16 16 16 13 13 10 10 8 6 4 2 2 5 7 9 10 9 12 10 10 14 18 19 18 18 18 17 18 19 20 21 20 21 22 22 23 22 22 25 26
21 20 19 17 15 14 14 14 8 7 8 6 4 2 8 11 11 13 15 11 15 16 16 20 22 23 23 22 21 21 21 20 20 20 19 19 19 20 22 21 22 24 24
22 22 21 19 15 11 8 6 6 9 12 14 16 18 15 17 17 15 15 12 11 12 18 22 23 23 22 20 19 18 17 16 16 17 17 18 18 19 18 19 21 22 23
17 17 17 16 14 12 10 9 9 10 14 15 15 17 20 18 17 15 12 10 8 8 11 14 14 14 13 13 13 13 14 15 16 17 19 20 21 22 23 23 23 23 24
15 16 15 14 13 11 10 10 11 12 14 14 15 16 17 17 15 13 11 7 6 5 6 7 8 9 10 11 13 15 16 18 19 20 21 22 23 24 25 26 26 27 28
9 9 10 10 10 10 10 11 12 13 14 14 14 15 14 14 13 12 10 9 9 9 10 11 13 15 17 18 20 21 22 24 25 26 27 28 29 29 30 30 31 31 33
8 11 14 14 15 16 16 16 17 17 17 17 16 13 12 10 10 11 12 14 15 16 16 17 18 20 21 23 24 25 26 27 29 31 32 33 34 35 37 37 37 38 39
11 14 16 17 18 19 19 20 19 19 19 18 17 16 14 13 14 16 17 17 18 19 20 21 22 23 23 24 26 28 29 30 32 35 37 37 38 39 41 42 42 44 45
15 17 18 18 20 21 21 20 20 19 18 17 17 16 16 17 18 19 20 21 22 22 22 22 23 25 28 30 32 34 35 36 38 40 43 44 46 46 48 50 50 51 52
20 20 20 20 22 22 22 21 20 19 18 17 18 18 19 20 20 22 23 24 24 24 26 27 29 31 33 35 38 41 43 45 48 49 51 54 55 55 57 59 60 61 62
24 22 21 22 23 23 22 21 20 20 19 19 20 20 22 23 25 25 25 26 27 28 30 33 36 39 43 46 48 48 49 50 53 55 59 63 67 67 69 70 71 71 71
26 24 23 23 23 23 22 21 21 21 21 22 23 24 25 26 27 27 29 31 33 36 39 42 46 50 51 52 53 55 58 61 65 67 69 72 75 75 74 74 72 71 71
Wind_Direction_850mb
255 237 241 240 232 239 242 233 227 246 248 244 234 217 215 213 216 216 220 222 227 215 216 248 248 261 259 257 255 257 251 256 251 245 246 245 243 247 247 244 237 234 231
281 259 256 256 245 239 240 228 208 237 242 233 208 198 205 197 174 179 186 180 191 203 211 235 253 247 253 252 251 254 250 247 245 240 236 237 239 236 231 226 215 218 228
276 256 252 244 236 231 227 220 202 215 226 227 197 189 166 162 172 182 193 205 201 205 205 206 190 146 151 145 178 195 227 240 236 234 224 211 199 192 194 196 198 209 224
291 268 253 229 224 215 204 197 194 209 202 173 162 156 154 152 151 157 147 138 138 130 129 123 119 124 126 132 142 152 166 184 179 165 170 170 170 165 177 185 186 189 193
327 296 236 203 202 191 186 176 177 178 163 154 147 140 139 133 124 124 122 121 126 129 127 125 120 112 108 112 119 113 111 130 142 148 150 155 157 161 171 172 175 165 165
55 77 129 151 165 155 153 151 150 140 140 137 132 129 126 121 121 122 123 125 123 121 120 115 108 105 100 104 104 104 106 105 110 121 129 136 139 146 153 159 165 163 169
98 103 114 126 135 134 128 131 126 126 125 121 118 116 113 110 113 113 115 119 120 116 112 111 115 110 103 96 94 97 101 107 112 116 129 138 144 155 161 173 186 205 218
86 98 109 116 118 116 117 117 116 116 113 110 111 109 109 103 107 111 120 121 121 118 115 112 110 109 105 98 90 96 98 103 105 112 118 135 152 167 181 193 196 208 216
72 79 85 93 97 103 104 102 101 107 107 106 109 115 115 110 108 106 110 110 109 110 105 101 97 96 96 97 94 88 95 101 107 109 115 141 164 181 204 216 217 221 224
67 65 70 79 83 87 90 97 100 103 104 107 108 108 106 103 104 104 103 101 105 106 106 106 108 107 106 104 119 118 105 146 170 185 203 230 230 228 233 236 243 243 246
73 77 82 85 89 94 95 95 98 101 104 102 103 102 102 102 103 101 103 104 104 108 112 132 143 143 117 164 302 316 268 265 266 263 261 260 261 259 258 256 255 255 254
87 90 89 90 91 91 90 94 96 100 102 98 93 97 95 95 100 117 116 124 130 118 144 194 237 242 255 269 279 272 268 269 269 271 271 272 271 266 262 262 261 261 259
85 92 94 95 96 99 100 97 97 92 84 87 92 90 82 80 67 57 44 257 264 227 241 237 260 281 286 294 293 283 270 264 266 275 277 277 277 278 277 276 273 268 263
75 84 88 93 95 95 92 93 92 94 93 93 86 88 93 86 30 347 276 296 321 289 260 284 292 294 302 312 315 307 293 287 285 284 285 285 284 282 282 280 281 279 277
68 71 73 74 74 73 77 79 69 69 58 48 69 50 307 289 286 294 293 265 269 280 272 280 288 296 304 303 303 297 289 289 291 291 288 283 281 281 281 282 283 281 280
59 66 70 70 73 85 84 94 111 87 82 95 104 334 285 290 296 291 297 295 280 262 253 260 270 279 284 287 285 285 285 288 291 291 291 292 291 292 294 292 287 281 280
40 42 44 45 45 51 52 46 26 1 358 350 348 336 339 333 333 328 323 319 298 255 252 255 257 261 267 272 277 283 290 292 292 293 294 296 295 293 293 293 292 292 291
43 42 41 36 32 24 7 343 323 315 318 323 324 322 324 328 328 331 331 320 304 269 247 244 250 262 275 285 296 305 310 311 308 305 303 301 299 299 297 294 293 293 294
28 29 26 21 16 6 351 331 319 313 311 312 314 314 316 323 330 336 340 325 295 278 264 264 271 281 291 297 299 300 300 300 301 301 301 300 301 299 297 296 295 293 292
10 6 5 5 358 348 337 326 314 305 300 300 304 308 311 317 323 321 317 318 322 321 319 316 312 310 310 311 312 314 314 314 312 310 309 308 308 305 302 299 297 295 293
350 356 356 353 345 335 325 314 306 301 298 299 302 308 312 309 308 310 316 318 316 312 310 309 310 310 311 311 311 311 310 310 309 307 308 307 306 304 302 301 299 298 296
330 333 328 326 324 319 312 304 296 289 286 287 292 297 299 299 303 304 302 301 303 303 303 302 302 303 304 304 305 306 306 305 304 303 303 302 301 300 299 298 298 297 296
299 301 300 303 307 305 300 293 285 280 277 278 279 282 286 290 293 297 299 300 299 299 298 298 299 302 304 305 305 303 303 302 300 300 300 298 297 297 296 294 293 291 290
281 283 288 296 300 299 294 288 283 278 274 275 277 281 286 289 292 292 291 292 293 295 297 299 301 301 300 299 299 299 299 298 296 296 295 294 293 293 291 290 289 289 288
274 279 285 291 292 290 285 278 276 276 277 279 282 284 287 289 289 289 290 292 295 296 298 299 299 299 298 297 296 296 295 293 291 291 290 289 288 288 287 286 286 287 286
274 276 281 286 286 283 278 277 276 277 279 281 283 285 287 287 288 290 292 294 295 296 296 296 296 297 297 297 297 295 293 293 293 292 290 289 288 288 288 288 287 286 285